Regional Weather Roundup
Issued by NWS Lake Charles, LA

Home | Current Version | Previous Version | Text Only | Print | Product List | Glossary On
Versions: 1 2 3 4 5 6 7 8 9 10 11 12 13 14 15 16 17 18 19 20 21 22 23 24 25 26 27 28 29 30 31 32 33 34 35 36 37 38 39 40 41 42 43 44 45 46 47 48 49 50
000
ASUS44 KLCH 012110
RWRLCH
REGIONAL WEATHER ROUNDUP
NATIONAL WEATHER SERVICE LAKE CHARLES LA
300 PM CST WED MAR 01 2017

Note: "fair" indicates few or no clouds below 12,000 feet with no
significant weather and/or obstructions to visibility.


ACROSS SOUTHEAST TEXAS

CITY           SKY/WX    TMP DP  RH WIND       PRES   REMARKS
BEAUMONT       CLOUDY    83  65  54 NW9       29.95S
BEAUMONT CITY  FAIR      84  60  44 NW17      29.97R
ORANGE         MOCLDY    77  72  83 S7        29.97F
JASPER           N/A     78  46  31 NW16      30.04S
$$

ACROSS CENTRAL LOUISIANA

CITY           SKY/WX    TMP DP  RH WIND       PRES   REMARKS
LEESVILLE      MOSUNNY   79  56  44 NW20G25   29.97R
FULLERTON      FAIR      82  59  45 VRB5      29.94R
ALEXANDRIA INT LGT RAIN  79  60  52 N17G28    29.95R
ESLER FIELD    CLOUDY    78  62  57 NW9       29.95S
DERIDDER       FAIR      80  57  44 NW18G30   29.99R
OAKDALE        CLOUDY    75  67  76 CALM      29.95F
OPELOUSAS      CLOUDY    81  67  64 MISG      29.94F
$$

ACROSS SOUTHWEST AND SOUTH CENTRAL LOUISIANA

CITY           SKY/WX    TMP DP  RH WIND       PRES   REMARKS
SULPHUR        HVY RAIN  77  71  81 SW9       29.98R
LAKE CHARLES   PTSUNNY   78  70  76 S10       29.96S
CHENNAULT INT  LGT RAIN  72  66  83 W7        29.97S
CAMERON PHI    CLEAR     73  70  88 SW12      29.96S
DEQUINCY       CLOUDY    81  62  52 NW15G21   29.96R
JENNINGS       FAIR      80  69  68 SW10G20   29.95S
LAFAYETTE      PTSUNNY   81  69  67 SW13      29.96F
NEW IBERIA     PTSUNNY   82  64  54 W14       29.96F
ABBEVILLE      FAIR      81  70  69 SW9G16    29.96F
PATTERSON      SUNNY     82  68  62 SW13      29.97F
SALT POINT       N/A     77  70  79 VRB5      29.97F
$$

SELECTED SITES ACROSS THE REGION

CITY           SKY/WX    TMP DP  RH WIND       PRES   REMARKS
HOUSTON BUSH   PTSUNNY   80  45  28 N16G26    30.03R
HOUSTON HOBBY  CLOUDY    82  50  32 N22G30    29.99R
GALVESTON      CLOUDY    77  71  82 S12       29.99S HAZE
COLLEGE STAT   MOSUNNY   72  39  30 N20G32    30.12S
CONROE         CLOUDY    74  43  32 N14G24    30.06R
HUNTSVILLE     PTSUNNY   72  38  29 N10G25    30.11R
LUFKIN         PTSUNNY   70  39  32 N13G24    30.09R
SHREVEPORT     CLOUDY    71  35  26 N17G24    30.10R
MONROE         SUNNY     75  45  34 N22       30.00R
NATCHEZ MS     CLOUDY    70  64  83 NW3       29.96S
BATON ROUGE    CLOUDY    83  65  54 SW13      29.95F
N.O. INTL ARPT PTSUNNY   82  68  62 W12       29.97F
SLIDELL        PTSUNNY   81  67  62 SW10      29.96F
$$

MARINE REPORTS

STATION/POSITION TIME  SKY/WX   TEMP    WIND        PRES    VSBY
                                AIR SEA DIR/SP/G
                 (UTC)          (F)     (DEG/KT/KT) (MB)    (MI)
BUOY 30 S HIGH I 2050            71 69  210/  8/ 10 1015.1F
WVE H/P(F/S)=  3/ 7

SEA RIM ST PARK  2000            72     200/ 11/ 13 1015.5F
PORT ARTHUR      2048               69  210/ 11/ 15 1014.7F
SABINE PASS N    2048            74 71  210/  8/ 14 1016.1F
TEXAS POINT      NOT AVBL
CALCASIEU PASS   2048            71 70  230/ 12/ 14   N/A
LK CHARLES BEACH 2048            70 69              1015.1R
MARSH ISLAND     2000            76                   N/A
FRESH WATER LOCK 2048            72 72  170/ 10/ 11 1016.0F
AMERADA PASS     2048            76 64  170/  5/  9 1015.5F
$$



USA.gov is the U.S. government's official web portal to all federal, state and local government web resources and services.